Content
SEND FEEDBACK

Daily
Averages
Monthly
Summary
French Polynesia

HITIAA, FRENCH POLYNESIA


Home > Oceania > French Polynesia
Elevation: 7 feet     Latitude: 17 33S     Longitude: 149 37W

WEATHER
 
SELECT A DAY
Number of Records: 208,245;   Date Range: 6/30/96 - 7/28/14
 
SHARE

PRINT THIS DATA

[ ← Previous Day ]
WEATHER ALMANAC - APRIL 23, 2013
[ Next Day → ]
[ °C ]   °F
Weather ElementAverageHighLow
Temperature81.2 °F87.8 °F (2:00 pm)77 °F (4:00 am)
Dewpoint74 °F76 °F (11:00 am)71.6 °F (7:30 pm)
Humidity78.1 %89 % (1:30 am)58 % (2:00 pm)
Barometer29.93 in29.98 in (9:00 am)29.86 in (3:00 pm)
Wind Speed4.8 mph15.7 mph (11:00 am)
Weather ElementAverage
Visibility7.6 mi
Wind DirectionSE (138.5 °)

Weather ElementTotal
Precipitation---
Cooling Degree Days17.4 (Base 65)
Growing Degree Days32.4 (Base 50)
Averaged from 55 records on April 23, 2013
WEATHER CONDITIONS BREAKOUT
WIND DIRECTION BREAKOUT
WEATHER BY HOUR - APRIL 23, 2013
[ °C ]   °F
Local TimeTemperatureDewpointHumidityBarometerVisibilityWind DirectionWind SpeedGust SpeedPrecipitationEventsConditions
12:30 AM80.6 °F75.2 °F84 %29.95 in6.2 miSW (230°)4.6 mphThunderstormThunderstorm
1:00 AM78.8 °F73.4 °F83 %29.92 in6.2 miVariable2.3 mphThunderstormThunderstorm
1:30 AM78.8 °F75.2 °F89 %29.92 in6.2 miSouth (170°)5.8 mphMostly Cloudy
2:00 AM78.0 °F74.0 °F85 %29.92 in12.0 miEast (100°)3.5 mphPartly Cloudy
2:00 AM78.8 °F75.2 °F89 %29.92 in6.2 miEast (100°)3.5 mphMostly Cloudy
2:30 AM78.8 °F73.4 °F83 %29.89 in6.2 miVariable2.3 mphMostly Cloudy
3:00 AM78.8 °F73.4 °F83 %29.89 in6.2 miVariable3.5 mphMostly Cloudy
3:30 AM78.8 °F73.4 °F83 %29.92 in6.2 miSSW (200°)3.5 mphScattered Clouds
4:00 AM77.0 °F73.4 °F89 %29.89 in6.2 miCalmScattered Clouds
4:30 AM77.0 °F73.4 °F89 %29.89 in6.2 miSE (130°)3.5 mph
5:00 AM77.0 °F73.0 °F84 %29.91 in37.0 miSouth (170°)2.3 mphClear
5:00 AM77.0 °F73.4 °F89 %29.89 in6.2 miVariable2.3 mphMostly Cloudy
5:30 AM77.0 °F73.4 °F89 %29.92 in6.2 miEast (90°)3.5 mph
6:00 AM77.0 °F73.4 °F89 %29.92 in6.2 miESE (110°)3.5 mphPartly Cloudy
6:30 AM77.0 °F73.4 °F89 %29.92 in6.2 miSouth (170°)3.5 mphPartly Cloudy
7:00 AM77.0 °F73.4 °F89 %29.95 in6.2 miSouth (180°)5.8 mphPartly Cloudy
7:30 AM80.6 °F73.4 °F79 %29.95 in6.2 miVariable2.3 mphPartly Cloudy
8:00 AM82.0 °F74.0 °F70 %29.97 in19.0 miSSE (160°)4.5 mphPartly Cloudy
8:00 AM82.4 °F73.4 °F74 %29.95 in6.2 miVariable2.3 mphPartly Cloudy
8:30 AM82.4 °F75.2 °F79 %29.95 in6.2 miWSW (240°)2.3 mphScattered Clouds
9:00 AM82.4 °F73.4 °F74 %29.98 in6.2 miSSW (210°)6.9 mphMostly Cloudy
9:30 AM82.4 °F75.2 °F79 %29.98 in6.2 miSW (230°)3.5 mphRainLight Rain Showers
10:00 AM80.6 °F75.2 °F84 %29.98 in5.0 miWSW (240°)10.4 mphRainLight Rain
10:30 AM82.4 °F75.2 °F79 %29.98 in6.2 miSW (230°)5.8 mphScattered Clouds
11:00 AM84.0 °F76.0 °F70 %29.97 in9.0 miWSW (240°)15.7 mphRainLight Rain
11:00 AM84.2 °F75.2 °F74 %29.95 in6.2 miWSW (240°)8.1 mphMostly Cloudy
11:30 AM84.2 °F75.2 °F74 %29.95 in6.2 miSW (230°)5.8 mphMostly Cloudy
12:00 PM84.2 °F75.2 °F74 %29.95 in6.2 miSW (230°)4.6 mphMostly Cloudy
12:30 PM84.2 °F73.4 °F70 %29.92 in6.2 miSW (220°)5.8 mphMostly Cloudy
1:00 PM84.2 °F75.2 °F74 %29.92 in6.2 miSW (230°)6.9 mphScattered Clouds
1:30 PM86.0 °F75.2 °F70 %29.89 in6.2 miSW (230°)5.8 mphPartly Cloudy
2:00 PM87.0 °F74.0 °F58 %29.89 in16.0 miWNW (290°)3.5 mphPartly Cloudy
2:00 PM87.8 °F75.2 °F66 %29.89 in6.2 miVariable3.5 mphPartly Cloudy
2:30 PM87.8 °F75.2 °F66 %29.89 in6.2 miWest (280°)4.6 mphScattered Clouds
3:00 PM87.8 °F75.2 °F66 %29.86 in6.2 miNorth (350°)5.8 mphPartly Cloudy
3:30 PM86.0 °F75.2 °F70 %29.89 in6.2 miNNE (30°)8.1 mphPartly Cloudy
4:00 PM86.0 °F75.2 °F70 %29.89 in6.2 miEast (80°)9.2 mphScattered Clouds
4:30 PM84.2 °F73.4 °F70 %29.89 in6.2 miSSW (200°)8.1 mphScattered Clouds
5:00 PM84.0 °F74.0 °F66 %29.90 in12.0 miSSW (200°)9.2 mphPartly Cloudy
5:00 PM84.2 °F75.2 °F74 %29.89 in6.2 miSouth (190°)9.2 mphScattered Clouds
5:30 PM82.4 °F75.2 °F79 %29.89 in6.2 miSSW (200°)8.1 mphScattered Clouds
6:00 PM82.4 °F75.2 °F79 %29.89 in6.2 miSouth (180°)8.1 mphScattered Clouds
6:30 PM80.6 °F73.4 °F79 %29.92 in6.2 miSouth (190°)4.6 mphPartly Cloudy
7:00 PM80.6 °F73.4 °F79 %29.92 in6.2 miSSE (160°)5.8 mphPartly Cloudy
7:30 PM80.6 °F71.6 °F74 %29.95 in6.2 miSSE (160°)3.5 mphPartly Cloudy
8:00 PM80.0 °F72.0 °F72 %29.96 in12.0 miEast (90°)6.7 mphScattered Clouds
8:00 PM80.6 °F73.4 °F79 %29.95 in6.2 miVariable3.5 mphPartly Cloudy
8:30 PM80.6 °F71.6 °F74 %29.95 in6.2 miVariable1.2 mphPartly Cloudy
9:00 PM78.8 °F73.4 °F83 %29.98 in6.2 miSSE (160°)4.6 mphPartly Cloudy
9:30 PM78.8 °F73.4 °F83 %29.98 in6.2 miVariable2.3 mphScattered Clouds
10:00 PM78.8 °F73.4 °F83 %29.95 in6.2 miVariable2.3 mphScattered Clouds
10:30 PM78.8 °F73.4 °F83 %29.98 in6.2 miVariable2.3 mphScattered Clouds
11:00 PM78.0 °F72.0 °F77 %29.96 in12.0 miEast (90°)2.3 mphScattered Clouds
11:00 PM78.8 °F71.6 °F78 %29.95 in6.2 miEast (90°)2.3 mphScattered Clouds
11:30 PM78.8 °F71.6 °F78 %29.95 in6.2 miEast (100°)3.5 mphPartly Cloudy
Hourly data recorded from NTAA, located miles away from Hitiaa, French Polynesia







STORIES FROM OUR PARTNERS